Date String (YYYY-MM-DD hh:mm:ss) UTC,Instrument flags,Ambient pressure (hPa),Sample flow (lpm),Bypass flow (lpm),Sample temperature (°C),Ambient temperature (°C),ASC tube jacket temperature (°C),LED temperature (°C),Box temperature (°C),Sample RH (%),Span deviation,Mass concentration (μg/m³),Mass concentration (μg/m³),Mass concentration (μg/m³)
DateTimeUTC,F1_M11,P_M11,Q1_M11,Q2_M11,T1_M11,T2_M11,T3_M11,T4_M11,T5_M11,U1_M11,ZSPAN_M11,X0_M11,X2_M11,X1_M11
2022-12-09 18:00:00,,0822.9,4.99,0.00,24.2,23.2,00.0,32.8,26.3,04.9,0000.0,0002.94,0001.00,0000.74
2022-12-09 18:01:00,,0822.8,5.01,0.00,24.2,23.2,00.0,32.8,26.3,04.8,0000.0,0002.82,0001.00,0000.74
2022-12-09 18:02:00,,0822.8,5.01,0.00,24.2,23.2,00.0,32.9,26.3,04.8,0000.0,0002.63,0001.02,0000.74
2022-12-09 18:03:00,,0822.7,4.98,0.00,24.2,23.2,00.0,32.9,26.2,04.8,0000.0,0002.65,0001.06,0000.75
2022-12-09 18:04:00,,0822.7,4.99,0.00,24.2,22.9,00.0,32.9,26.1,04.7,0000.0,0002.66,0001.08,0000.77
2022-12-09 18:05:00,,0822.7,5.01,0.00,24.2,22.9,00.0,32.9,26.1,04.8,0000.0,0002.70,0001.10,0000.78
2022-12-09 18:06:00,,0822.7,5.00,0.00,24.2,22.9,00.0,32.9,26.1,04.8,0000.0,0002.81,0001.14,0000.79
2022-12-09 18:07:00,,0822.6,4.98,0.00,24.2,22.9,00.0,32.9,26.1,04.7,0000.0,0003.35,0001.13,0000.78
2022-12-09 18:08:00,,0822.6,4.99,0.00,24.2,22.9,00.0,32.9,26.1,04.8,0000.0,0004.69,0001.15,0000.79
2022-12-09 18:09:00,,0822.6,5.02,0.00,24.2,22.9,00.0,32.9,26.1,04.8,0000.0,0004.35,0001.17,0000.79
2022-12-09 18:10:00,,0822.5,5.00,0.00,24.2,23.0,00.0,32.9,26.2,04.9,0000.0,0003.98,0001.19,0000.80
2022-12-09 18:11:00,,0822.5,4.98,0.00,24.2,22.9,00.0,32.9,26.2,04.9,0000.0,0004.07,0001.20,0000.80
2022-12-09 18:12:00,,0822.5,5.01,0.00,24.2,22.9,00.0,32.9,26.2,04.8,0000.0,0005.18,0001.24,0000.81
2022-12-09 18:13:00,,0822.5,5.02,0.00,24.2,22.9,00.0,32.9,26.2,04.8,0000.0,0005.78,0001.26,0000.82
2022-12-09 18:14:00,,0822.6,4.98,0.00,24.2,22.9,00.0,32.9,26.1,04.7,0000.0,0007.41,0001.25,0000.82
2022-12-09 18:15:00,,0822.6,4.98,0.00,24.2,22.9,00.0,33.0,26.1,04.8,0000.0,0007.55,0001.24,0000.82
2022-12-09 18:16:00,,0822.7,5.01,0.00,24.2,22.9,00.0,33.0,26.1,04.7,0000.0,0007.55,0001.24,0000.81
2022-12-09 18:17:00,,0822.6,5.02,0.00,24.2,22.9,00.0,32.9,26.1,04.7,0000.0,0007.56,0001.23,0000.81
2022-12-09 18:18:00,,0822.5,4.99,0.00,24.2,23.0,00.0,32.9,26.1,04.7,0000.0,0007.42,0001.24,0000.81
2022-12-09 18:19:00,,0822.4,4.99,0.00,24.2,23.0,00.0,33.0,26.1,04.7,0000.0,0006.20,0001.27,0000.81
2022-12-09 18:20:00,,0822.4,5.03,0.00,24.2,23.0,00.0,33.0,26.1,04.7,0000.0,0005.98,0001.29,0000.82
2022-12-09 18:21:00,,0822.4,4.99,0.00,24.3,23.0,00.0,33.0,26.2,04.7,0000.0,0005.90,0001.26,0000.81
2022-12-09 18:22:00,,0822.4,4.98,0.00,24.3,23.1,00.0,33.0,26.2,04.7,0000.0,0005.98,0001.30,0000.82
2022-12-09 18:23:00,,0822.4,5.01,0.00,24.3,23.1,00.0,33.0,26.2,04.7,0000.0,0005.19,0001.32,0000.84
2022-12-09 18:24:00,,0822.4,5.02,0.00,24.3,23.1,00.0,33.0,26.2,04.7,0000.0,0004.62,0001.29,0000.85
2022-12-09 18:25:00,,0822.4,4.98,0.00,24.3,23.1,00.0,33.0,26.2,04.8,0000.0,0002.90,0001.29,0000.85
2022-12-09 18:26:00,,0822.4,4.98,0.00,24.3,23.1,00.0,33.0,26.2,04.8,0000.0,0002.31,0001.31,0000.86
2022-12-09 18:27:00,,0822.3,5.02,0.00,24.3,23.2,00.0,33.0,26.2,05.0,0000.0,0002.28,0001.30,0000.86
2022-12-09 18:28:00,,0822.2,4.99,0.00,24.3,23.2,00.0,33.0,26.2,04.9,0000.0,0002.25,0001.30,0000.87
2022-12-09 18:29:00,,0822.3,4.98,0.00,24.4,23.2,00.0,33.1,26.3,05.2,0000.0,0002.87,0001.31,0000.88
2022-12-09 18:30:00,,0822.3,5.00,0.00,24.4,23.2,00.0,33.1,26.2,05.5,0000.0,0004.06,0001.36,0000.93
2022-12-09 18:31:00,,0822.3,5.02,0.00,24.4,23.2,00.0,33.1,26.3,05.6,0000.0,0004.22,0001.45,0001.02
2022-12-09 18:32:00,,0822.3,4.99,0.00,24.4,23.2,00.0,33.1,26.3,05.6,0000.0,0004.34,0001.52,0001.09
2022-12-09 18:33:00,,0822.2,4.99,0.00,24.4,23.2,00.0,33.1,26.3,05.7,0000.0,0004.36,0001.57,0001.15
2022-12-09 18:34:00,,0822.2,5.01,0.00,24.4,23.2,00.0,33.1,26.3,05.7,0000.0,0004.95,0001.67,0001.21
2022-12-09 18:35:00,,0822.1,5.01,0.00,24.4,23.2,00.0,33.1,26.3,05.6,0000.0,0006.12,0001.76,0001.29
2022-12-09 18:36:00,,0822.1,4.98,0.00,24.4,23.2,00.0,33.1,26.3,05.6,0000.0,0006.28,0001.81,0001.35
2022-12-09 18:37:00,,0822.1,4.98,0.00,24.4,23.2,00.0,33.1,26.3,05.7,0000.0,0006.66,0001.89,0001.42
2022-12-09 18:38:00,,0822.0,5.02,0.00,24.4,23.2,00.0,33.2,26.3,05.7,0000.0,0006.93,0002.00,0001.50
2022-12-09 18:39:00,,0821.9,5.01,0.00,24.4,23.2,00.0,33.2,26.4,05.7,0000.0,0007.02,0002.07,0001.57
2022-12-09 18:40:00,,0822.0,4.98,0.00,24.5,23.2,00.0,33.2,26.4,05.9,0000.0,0006.71,0002.16,0001.63
2022-12-09 18:41:00,,0822.1,4.99,0.00,24.5,23.2,00.0,33.2,26.4,05.8,0000.0,0005.27,0002.18,0001.67
2022-12-09 18:42:00,,0822.1,5.02,0.00,24.5,23.2,00.0,33.2,26.3,05.7,0000.0,0005.58,0002.15,0001.67
2022-12-09 18:43:00,,0822.1,4.99,0.00,24.5,23.2,00.0,33.2,26.3,05.7,0000.0,0005.66,0002.15,0001.68
2022-12-09 18:44:00,,0822.0,4.98,0.00,24.5,23.2,00.0,33.2,26.3,05.7,0000.0,0006.08,0002.19,0001.69
2022-12-09 18:45:00,,0821.9,5.01,0.00,24.5,23.2,00.0,33.2,26.3,05.8,0000.0,0005.78,0002.19,0001.70
2022-12-09 18:46:00,,0821.8,5.02,0.00,24.5,23.2,00.0,33.2,26.3,05.7,0000.0,0005.80,0002.22,0001.71
2022-12-09 18:47:00,,0821.8,4.99,0.00,24.5,23.3,00.0,33.2,26.4,05.8,0000.0,0006.90,0002.28,0001.72
2022-12-09 18:48:00,,0821.8,4.98,0.00,24.5,23.3,00.0,33.2,26.4,05.8,0000.0,0007.56,0002.27,0001.72
2022-12-09 18:49:00,,0821.8,5.01,0.00,24.5,23.3,00.0,33.2,26.4,05.9,0000.0,0007.69,0002.26,0001.73
2022-12-09 18:50:00,,0822.3,5.01,0.00,24.5,23.3,00.0,33.2,26.4,05.8,0000.0,0008.38,0002.28,0001.74
2022-12-09 18:51:00,,0821.8,4.98,0.00,24.5,23.3,00.0,33.2,26.4,06.0,0000.0,0008.39,0002.28,0001.76
2022-12-09 18:52:00,,0821.8,5.00,0.00,24.5,23.3,00.0,33.3,26.4,05.9,0000.0,0008.44,0002.29,0001.77
2022-12-09 18:53:00,,0821.8,5.03,0.00,24.5,23.4,00.0,33.3,26.4,05.9,0000.0,0008.29,0002.31,0001.79
2022-12-09 18:54:00,,0821.8,4.99,0.00,24.6,23.4,00.0,33.3,26.5,05.9,0000.0,0008.44,0002.29,0001.77
2022-12-09 18:55:00,,0821.8,4.99,0.00,24.6,23.4,00.0,33.3,26.5,06.0,0000.0,0008.38,0002.30,0001.78
2022-12-09 18:56:00,,0821.7,5.00,0.00,24.6,23.4,00.0,33.3,26.5,06.0,0000.0,0008.34,0002.29,0001.80
2022-12-09 18:57:00,,0821.6,5.02,0.00,24.6,23.4,00.0,33.3,26.5,06.1,0000.0,0007.91,0002.31,0001.82
2022-12-09 18:58:00,,0821.6,5.00,0.00,24.6,23.4,00.0,33.3,26.5,06.1,0000.0,0006.97,0002.36,0001.84
2022-12-09 18:59:00,,0821.6,4.98,0.00,24.6,23.4,00.0,33.3,26.5,06.0,0000.0,0006.64,0002.46,0001.87
